Printer-friendly version
Follow the MPC on Twitter Follow the MPC on Facebook The MPC blog
Minor Planet Center

MPEC 2005-Y62 : 2005 YM128

The following Minor Planet Electronic Circular may be linked-to from your own Web pages, but must not otherwise be redistributed electronically.

A form allowing access to any MPEC is at the bottom of this page.


Read MPEC 2005-Y61 Read MPEC 2005-Y63


M.P.E.C. 2005-Y62                                Issued 2005 Dec. 31, 01:08 UT

     The Minor Planet Electronic Circulars contain information on unusual
         minor planets and routine data on comets.  They are published
   on behalf of Commission 20 of the International Astronomical Union by the
          Minor Planet Center, Smithsonian Astrophysical Observatory,
                          Cambridge, MA 02138, U.S.A.

                  Supported in part by the Brinson Foundation
                  Supported in part by the TABASGO Foundation
             Prepared using the Tamkin Foundation Computer Network

                              MPC@CFA.HARVARD.EDU
          URL http://cfa-www.harvard.edu/iau/mpc.html  ISSN 1523-6714

                                  2005 YM128

Observations:
     K05YC8M* C2005 12 30.14819 02 53 21.98 +20 01 47.0          19.1 V EY062G96
     K05YC8M  C2005 12 30.15367 02 53 19.82 +20 02 35.1          19.2 V EY062G96
     K05YC8M  C2005 12 30.15913 02 53 17.66 +20 03 23.6          19.3 V EY062G96
     K05YC8M  C2005 12 30.26530 02 52 35.76 +20 18 48.3          19.1 V EY062G96
     K05YC8M  C2005 12 30.26741 02 52 34.93 +20 19 06.6          18.9 V EY062G96
     K05YC8M  C2005 12 30.27039 02 52 33.81 +20 19 32.0          19.2 V EY062G96
     K05YC8M  C2005 12 30.27306 02 52 32.77 +20 19 54.7          19.1 V EY062G96
     K05YC8M  C2005 12 30.27784 02 52 30.97 +20 20 36.0          19.3 V EY062G96
     K05YC8M  C2005 12 30.28021 02 52 30.07 +20 20 56.4          19.1 V EY062G96
     K05YC8M  C2005 12 30.28252 02 52 29.17 +20 21 16.3          19.3 V EY062G96
     K05YC8M  C2005 12 30.28453 02 52 28.41 +20 21 33.4          19.2 V EY062G96
     K05YC8M  C2005 12 30.77960 02 49 52.42 +21 33 49.3                 EY062J95
     K05YC8M  C2005 12 30.78492 02 49 50.39 +21 34 37.7                 EY062J95
     K05YC8M  C2005 12 30.79144 02 49 47.94 +21 35 36.2          19.2 R EY062J95

Observer details:
G96 Mt. Lemmon Survey.  Observer R. Hill.  Measurers E. C. Beshore,
    E. J. Christensen, G. J. Garradd, A. D. Grauer, R. E. Hill, R. A. Kowalski,
    S. M. Larson, R. H. McNaught.  1.5-m reflector + CCD.
J95 Great Shefford.  Observer P. Birtwhistle.  0.40-m f/6.0 Schmidt-Cassegrain
    + CCD.

Orbital elements:
2005 YM128                                          Earth MOID = 0.0297 AU
Epoch 2006 Mar. 6.0 TT = JDT 2453800.5                  MPC
M  15.53357              (2000.0)            P               Q
n   0.85652931     Peri.   50.97647     -0.82071460     -0.55494175
a   1.0980983      Node    94.91208     +0.47294849     -0.79332642
e   0.1061979      Incl.    7.83929     +0.32054214     -0.25034544
P   1.15           H   23.8           G   0.15           U   8
Residuals in seconds of arc
051230 G96  0.1+  0.0     051230 G96  0.5+  0.2+    051230 G96  0.4+  0.0
051230 G96  0.5+  0.3-    051230 G96  0.2+  0.1-    051230 J95  0.1+  0.5-
051230 G96  0.8+  0.1+    051230 G96  0.6+  0.1+    051230 J95  0.2+  0.2+
051230 G96  0.4+  0.3+    051230 G96  0.6+  0.1+    051230 J95  1.0+  0.4+
051230 G96  0.1+  0.4+    051230 G96  0.3+  0.1+

Ephemeris:
2005 YM128               a,e,i = 1.10, 0.11, 8                   q = 0.9815
Date    TT    R. A. (2000) Decl.     Delta      r     Elong.  Phase     V
2005 12 26    03 15.39   +10 13.2    0.0532   1.022   134.5    43.4    19.2
2006 01 05    02 18.68   +34 15.3    0.0516   1.008   117.7    59.7    19.5
2006 01 15    01 07.88   +53 49.2    0.0603   0.997   101.6    75.0    20.3
2006 01 25    23 39.60   +64 47.3    0.0744   0.989    91.4    84.3    21.1
2006 02 04    22 03.63   +69 12.5    0.0898   0.984    86.1    88.7    21.7
2006 02 14    20 39.91   +69 39.5    0.105    0.982    83.7    90.2    22.0
2006 02 24    19 40.71   +68 05.1    0.117    0.983    83.2    90.0    22.3
2006 03 06    19 01.64   +65 48.6    0.127    0.987    84.0    88.7    22.4
2006 03 16    18 34.58   +63 17.1    0.134    0.994    85.9    86.4    22.5
2006 03 26    18 14.08   +60 42.1    0.138    1.004    88.8    83.3    22.4
2006 04 05    17 54.98   +58 00.7    0.138    1.016    92.8    79.4    22.3
2006 04 15    17 34.42   +54 50.5    0.134    1.031    98.2    74.4    22.1
2006 04 25    17 10.69   +50 42.2    0.129    1.047   105.0    68.2    21.8
2006 05 05    16 43.34   +44 44.1    0.122    1.063   113.7    60.3    21.5
2006 05 15    16 15.33   +36 03.7    0.118    1.081   124.0    50.9    21.2
2006 05 25    15 50.34   +24 37.8    0.118    1.098   134.3    41.3    21.0
2006 06 04    15 31.83   +11 42.6    0.126    1.116   141.2    34.7    21.0
2006 06 14    15 21.62   -00 27.6    0.144    1.132   141.7    33.8    21.3
2006 06 24    15 19.25   -10 27.6    0.171    1.148   137.4    36.9    21.8
2006 07 04    15 23.93   -18 09.0    0.204    1.162   131.4    41.0    22.3

Timothy B. Spahr             (C) Copyright 2005 MPC           M.P.E.C. 2005-Y62

Read MPEC 2005-Y61 Read MPEC 2005-Y63


MPEC number:

Enter an MPEC number in one of the following forms:

  • 1997-B01 (the full form)
  • J97B01 (the packed version of the full form)
  • B01 (the abbreviated form)

Valid HTML 4.01!